Starlink 35889

operational
NORAD ID: 67189 Int'l Des: 2025-303 Owner: SPXS Country: US Constellation: starlink
LEOCIRCULAR

Über Starlink 35889

Beschreibung wird geladen...

Live-Position

3D-Globus wird geladen...

Nächste Überflüge

Höhenverlauf

Altitude vs Time

uPlot chart will show altitude changes over time

Zweizeiliger Elementsatz

1 67189C 25303AC 25352.76854167 .00691950 00000+0 10115-2 0 3527
2 67189 43.0050 61.7764 0007457 282.6547 272.5384 16.03391042 14
Epoch: 18. Dez. 2025 • Age: 56 hours

Aktueller Status

Höhe 260.4 km
Geschwindigkeit 7.75 km/s
Subsatellitenpunkt 1.87°N, 25°E
Startdatum 17. Dez. 2025
Alter 2 days
Typ internet

Technische Details

Klassifizierung Payload
Masse 575.00 kg
Trockenmasse 530.00 kg
Gesamtmasse 575.00 kg
Länge 0.30 m
Durchmesser 4.10 m
Spannweite 29.00 m
Form Box + pan
Hersteller SPXS
Bus-Typ Starlink V2MO
Phasenstatus In Orbit
Besitzer/Staat SPXS/US

Große Konstellationen

Loading constellations...